TITAN 4B DEB, 40528

Orbit data source: Space-Track

TITAN 4B DEB, 40528 is space debris in LEO originally from a launch on Thu, 17 Aug 2000 UTC launched from the Air Force Western Test Range (AFWTR). Debris objects in space refer to the collection of defunct objects orbiting the Earth. Examples of debris include non-operational satellites, rocket bodies, and fragments generated from explosions, collisions, or faulty payload assembly.

Loading next visibility...
Identifier
40528, 2000-047E
Orbit
LEO
Country
Flag of USUS
Related business
Manufacturer
LMSS Denver
Mission
Spacecraft
Bus & Motor
Unknown
Mass
Unknown
Launch date (UTC)
2000-08-17 (25 years ago)
Launch vehicle
Unknown
Launch site
Air Force Western Test Range (AFWTR)
Object type
Payload
Rocket body
Debris
Shape & HBR
Unknown shape, 0.1 m
Radar Cross Section
Small (<0.1 m²)

Expand to show TLE details & history
Last TLE update: 21 hours ago

TLE from 21 hours ago
0 TITAN 4B DEB
1 40528U 00047E   25290.36444740  .00000830  00000-0  83000-4 0  9996
2 40528  67.9937 166.7269 0061425 237.6998 242.2002 14.95544420576313
Epoch: 2025-10-17T08:44Z
TLE epoch observation values (Epoch: 2025-10-17T08:44:48.255Z)
Latitude
54.08872°
Longitude
155.70058°
Altitude
608.979 km
Speed
7.549 km/s
True Right ascension
20h 52m 03s
True Declination
53° 55' 18"
Sunlit
Object was in daylight at epoch
Visualization orbit readout
Latitude
Unknown
Longitude
Unknown
Altitude
Unknown
Speed
Unknown
Apparent Right ascension
Unknown
Apparent Declination
Unknown
Sunlit
N/A
Visualization observer readout
Local Sidereal Time
00:14:53
Azimuth
Unknown
Elevation
Unknown
Doppler factor
Unknown
Orbital elements
Apogee altitude
621.59 km
Perigee altitude
536.123 km
Semi-major axis
6,956.993 km
Eccentricity
0.00614
Inclination
67.9937°
RAAN
166.7269°
Arg. of periapsis
237.6998°
True anomaly
241.5798°
Mean anomaly
242.2002°
Eccentric anomaly
241.88977°
Mean motion
3.74034 °/min
Orbital period
96.25 mins
BSTAR
0.000083
Loading maneuver chart data...
Computing Atmospheric mass density...
Loading historical data...
Loading historical data...
Loading historical data...
Loading historical data...
Loading historical data...
Loading historical data...
Loading historical data...
Other satellites on launch #47 in the year 2000 (2000-08-17 UTC)

Documentation

Showing up to 5 results
|